Weather History for KPPF - March, 2013

Change the Weather History Date:

Thursday, March 21, 2013

  Actual Average (KCNU) Record (KCNU)
Temperature  
Mean Temperature 36 °F 49 °F  
Max Temperature 39 °F 60 °F 95 °F (1916)
Min Temperature 33 °F 38 °F 10 °F (1913)
Degree Days  
Heating Degree Days 29 16  
Month to date heating degree days 412  
Since 1 July heating degree days 3984  
Cooling Degree Days 0 0  
Month to date cooling degree days 0  
Year to date cooling degree days 0  
Moisture  
Dew Point 23 °F    
Average Humidity 63    
Maximum Humidity 87    
Minimum Humidity 35    
Precipitation  
Precipitation 0.00 in 0.09 in 1.48 in (1902)
Month to date precipitation 1.97  
Year to date precipitation 5.13  
Sea Level Pressure  
Sea Level Pressure 29.92 in    
Wind  
Wind Speed 6 mph (East)    
Max Wind Speed 10 mph    
Max Gust Speed 20 mph    
Visibility 10 miles    
Events Rain    
T = Trace of Precipitation, MM = Missing Value Source: NWS Daily Summary

Daily Weather History Graph

Daily Weather History Graph

Search for Another Location

Airport or City:

Trip Planner

Search our weather history database for the weather conditions in past years. The results will help you decide how hot, cold, wet, or windy it might be!

Date:

Astronomy

Mar. 21, 2013 Rise Set
Actual Time 7:23 AM CDT 7:35 PM CDT
Civil Twilight 6:57 AM CDT 8:01 PM CDT
Nautical Twilight 6:27 AM CDT 8:31 PM CDT
Astronomical Twilight 5:56 AM CDT 9:02 PM CDT
Moon 2:11 PM CDT (3/21) 3:39 AM CDT (3/21)
Length of Visible Light 13h 03m
Length of Day
12h 11m
Waxing Gibbous, 69% of the Moon is Illuminated
Mar 21
Waxing Gibbous
Mar 27
Full
Apr 2
Last Quarter
Apr 10
New
Apr 18
First Quarter

Hourly Weather History & Observations

Time (CDT) Temp. Windchill Dew Point Humidity Pressure Visibility Wind Dir Wind Speed Gust Speed Precip Events Conditions
12:52 AM 34.0 °F 29.8 °F 18.0 °F 52% 30.09 in 10.0 mi Variable 4.6 mph - N/A   Clear
1:52 AM 35.1 °F 32.2 °F 17.1 °F 48% 30.08 in 10.0 mi East 3.5 mph - N/A   Partly Cloudy
2:52 AM 35.1 °F 32.2 °F 17.1 °F 48% 30.06 in 10.0 mi East 3.5 mph - N/A   Clear
3:52 AM 35.1 °F 31.0 °F 17.1 °F 48% 30.06 in 10.0 mi Variable 4.6 mph - N/A   Overcast
4:52 AM 35.1 °F 32.2 °F 17.1 °F 48% 30.03 in 10.0 mi Variable 3.5 mph - N/A   Overcast
5:52 AM 35.1 °F 27.9 °F 14.0 °F 42% 30.01 in 10.0 mi East 9.2 mph 16.1 mph N/A   Overcast
6:52 AM 35.1 °F 31.0 °F 12.9 °F 40% 30.02 in 10.0 mi Variable 4.6 mph - N/A   Mostly Cloudy
7:52 AM 35.1 °F 29.3 °F 14.0 °F 42% 30.01 in 10.0 mi East 6.9 mph - N/A   Mostly Cloudy
8:52 AM 36.0 °F 31.1 °F 12.9 °F 39% 29.99 in 10.0 mi East 5.8 mph - N/A   Overcast
9:52 AM 37.0 °F 31.0 °F 12.0 °F 36% 29.98 in 10.0 mi ESE 8.1 mph - N/A   Overcast
10:52 AM 37.9 °F 32.1 °F 12.0 °F 35% 29.97 in 10.0 mi ESE 8.1 mph - N/A   Overcast
12:52 PM 39.9 °F 33.9 °F 14.0 °F 35% 29.90 in 10.0 mi East 9.2 mph 18.4 mph N/A   Overcast
1:52 PM 37.9 °F 32.1 °F 19.9 °F 48% 29.89 in 10.0 mi East 8.1 mph 17.3 mph 0.00 in Rain Light Rain
2:52 PM 37.0 °F 30.4 °F 27.0 °F 67% 29.87 in 10.0 mi East 9.2 mph - 0.00 in   Overcast
3:52 PM 36.0 °F 28.5 °F 28.9 °F 76% 29.85 in 10.0 mi East 10.4 mph 18.4 mph N/A   Overcast
4:52 PM 36.0 °F 29.0 °F 28.9 °F 76% 29.84 in 10.0 mi East 9.2 mph 16.1 mph N/A   Overcast
5:52 PM 35.1 °F 27.9 °F 28.9 °F 78% 29.84 in 10.0 mi East 9.2 mph - N/A   Overcast
6:15 PM 35.6 °F 29.9 °F 28.4 °F 75% 29.82 in 10.0 mi Variable 6.9 mph - N/A   Overcast
6:52 PM 35.1 °F 30.1 °F 28.9 °F 78% 29.85 in 10.0 mi Variable 5.8 mph 19.6 mph N/A   Overcast
7:00 PM 35.6 °F 29.2 °F 28.4 °F 75% 29.84 in 10.0 mi East 8.1 mph - N/A   Overcast
7:52 PM 34.0 °F - 30.0 °F 85% 29.86 in 10.0 mi North - - N/A   Overcast
8:07 PM 33.8 °F 27.7 °F 30.2 °F 87% 29.85 in 10.0 mi East 6.9 mph - N/A   Overcast
8:52 PM 34.0 °F 28.0 °F 30.0 °F 85% 29.86 in 10.0 mi Variable 6.9 mph - N/A   Overcast
9:25 PM 33.8 °F 27.7 °F 30.2 °F 87% 29.85 in 10.0 mi Variable 6.9 mph - N/A   Overcast
9:52 PM 34.0 °F 28.0 °F 28.9 °F 82% 29.88 in 10.0 mi Variable 6.9 mph - N/A   Overcast
10:40 PM 35.6 °F 29.9 °F 28.4 °F 75% 29.86 in 10.0 mi East 6.9 mph - N/A   Overcast
10:52 PM 35.1 °F 28.6 °F 28.9 °F 78% 29.87 in 10.0 mi East 8.1 mph - N/A   Overcast
11:02 PM 35.6 °F 28.6 °F 28.4 °F 75% 29.86 in 10.0 mi East 9.2 mph - N/A   Overcast
11:52 PM 35.1 °F 32.2 °F 28.9 °F 78% 29.88 in 10.0 mi Variable 3.5 mph - N/A   Overcast